Regional Weather Roundup
Issued by NWS

Home | Current Version | Previous Version | Graphics & Text | Print | Product List | Glossary On
Versions: 1 2 3 4 5 6 7 8 9 10 11 12 13 14 15 16 17 18 19 20 21 22 23 24 25 26 27 28 29 30 31 32 33 34 35 36 37 38 39 40 41 42 43 44 45 46 47 48 49 50
000
ASUS43 KTOP 231208
RWRKS

WEATHER ROUNDUP FOR KANSAS
NATIONAL WEATHER SERVICE GOODLAND KS
700 AM CDT SAT AUG 23 2014

NOTE:  "FAIR" INDICATES FEW OR NO CLOUDS BELOW 12,000 FEET WITH NO
SIGNIFICANT WEATHER AND/OR OBSTRUCTIONS TO VISIBILITY.

KSZ001>006-013>018-027>032-041>047-231300-
NORTHWEST KANSAS

CITY           SKY/WX    TMP DP  RH WIND       PRES   REMARKS
GOODLAND       MOCLDY    64  63  96 NW7       29.88F
6HR MIN TEMP:  64; 6HR MAX TEMP:  65;

HAYS           CLEAR     66  61  82 S3        29.87R
HILL CITY      PTCLDY    67  66  97 E5        29.86R
6HR MIN TEMP:  67; 6HR MAX TEMP:  72; 6HR PCP:  0.01;

RUSSELL        CLEAR     68  61  78 S12       29.86R
6HR MIN TEMP:  68; 6HR MAX TEMP:  73;

$$

KSZ061>065-074>080-084>089-231300-
SOUTHWEST KANSAS

CITY           SKY/WX    TMP DP  RH WIND       PRES   REMARKS
DODGE CITY     CLEAR     68  61  78 S9        29.90F
6HR MIN TEMP:  65; 6HR MAX TEMP:  80; 6HR PCP:  0.02;

ELKHART          N/A     70  57  63 S8          N/A
GARDEN CITY    PTCLDY    65  62  90 S5        29.90S
6HR MIN TEMP:  65; 6HR MAX TEMP:  71; 6HR PCP:  0.05;

GREAT BEND     CLEAR     70  57  64 S10       29.88R
LIBERAL        PTCLDY    66  59  77 S8        29.94R
PRATT          CLEAR     64  54  68 SW10      29.92R
$$

KSZ066>073-081>083-090>101-231300-
SOUTHEAST KANSAS

CITY           SKY/WX    TMP DP  RH WIND       PRES   REMARKS
CHANUTE        CLEAR     75  68  78 S9        29.93R
6HR MIN TEMP:  75; 6HR MAX TEMP:  81;

COFFEYVILLE    CLEAR     76  69  79 S10       29.93R
6HR MIN TEMP:  76; 6HR MAX TEMP:  81;

HUTCHINSON     CLEAR     72  60  66 S6        29.88R
6HR MIN TEMP:  72; 6HR MAX TEMP:  81;

MEDICINE LODGE   N/A     71  55  56 S5        29.90R
NEWTON         CLEAR     75  55  50 S12       29.93R
PARSONS        CLEAR     74  68  81 S5        29.94S
6HR MIN TEMP:  74; 6HR MAX TEMP:  81;

WICHITA INTL   PTCLDY    71  61  70 S9        29.89S
6HR MIN TEMP:  71; 6HR MAX TEMP:  83;

WICHITA JABRA  CLEAR     74  60  61 S10       29.89S
6HR MIN TEMP:  74; 6HR MAX TEMP:  83;

WICHITA MCCONL CLEAR     73  61  66 S13       29.90S
WINFIELD       CLEAR     75  62  64 S12       29.92S
6HR MIN TEMP:  75; 6HR MAX TEMP:  82;

$$

KSZ007>012-019>026-033>040-048>060-102>105-231300-
NORTHEAST KANSAS

CITY           SKY/WX    TMP DP  RH WIND       PRES   REMARKS
CONCORDIA      CLOUDY    72  72 100 E9        29.85F FOG
6HR MIN TEMP:  72; 6HR MAX TEMP:  76;

EMPORIA        CLEAR     71  65  81 S12       29.89S
6HR MIN TEMP:  70; 6HR MAX TEMP:  77;

LAWRENCE       CLOUDY    79  68  69 SE6       29.89R
6HR MIN TEMP:  76; 6HR MAX TEMP:  81;

MANHATTAN      PTCLDY    75  65  70 N7        29.87R
6HR MIN TEMP:  73; 6HR MAX TEMP:  83;

MARYSVILLE     MOCLDY    70  70 100 SE12      29.87S
OLATHE IND     MOCLDY    74  70  87 S10       29.91S
6HR MIN TEMP:  74; 6HR MAX TEMP:  78;

OLATHE EXE     MOCLDY    76  69  79 S8        29.91R
6HR MIN TEMP:  74; 6HR MAX TEMP:  77;

SALINA         CLEAR     75  62  64 S13       29.85R
6HR MIN TEMP:  75; 6HR MAX TEMP:  83;

TOPEKA BILLARD MOCLDY    78  67  68 VRB5      29.88R
6HR MIN TEMP:  78; 6HR MAX TEMP:  82;

TOPEKA FORBES  PTCLDY    74  66  76 S9        29.88S
6HR MIN TEMP:  74; 6HR MAX TEMP:  80;

$$



USA.gov is the U.S. government's official web portal to all federal, state and local government web resources and services.